This is the latest recevied weather packets stored in our database for station/object S56IAR-13. If no packets are shown the sender has not sent any weather packets the latest 10 day(s).
| Time | Temp. | Humidity | Pressure | Rain* | Wind** | Luminosity | Snow |
|---|---|---|---|---|---|---|---|
| 1777833603 | 11.67° C | 76% | 963.8 hPa | 0 mm | - | 0 W/m² | - |
| 1777832104 | 12.22° C | 78% | 963.7 hPa | 0 mm | - | 1 W/m² | - |
| 1777830735 | 13.33° C | 74% | 963.5 hPa | 0 mm | - | 8 W/m² | - |
| 1777828505 | 15.56° C | 68% | 963.4 hPa | 0 mm | - | 24 W/m² | - |
| 1777828036 | 16.11° C | 67% | 963.5 hPa | 0 mm | - | 26 W/m² | - |
| 1777827005 | 16.67° C | 57% | 963.3 hPa | 0 mm | - | 31 W/m² | - |
| 1777826703 | 17.78° C | 62% | 963.4 hPa | 0 mm | - | 33 W/m² | - |
| 1777823105 | 22.78° C | 39% | 963.2 hPa | 0 mm | - | 249 W/m² | - |
| 1777822505 | 22.22° C | 39% | 963.3 hPa | 0 mm | - | 249 W/m² | - |
| 1777822334 | 22.78° C | 38% | 963.5 hPa | 0 mm | - | 249 W/m² | - |
| 1777819203 | 23.33° C | 35% | 963.5 hPa | 0 mm | - | 444 W/m² | - |
| 1777817105 | 24.44° C | 35% | 963.5 hPa | 0 mm | - | 530 W/m² | - |
| 1777814105 | 23.33° C | 36% | 963.9 hPa | 0 mm | - | 639 W/m² | - |
| 1777813803 | 23.89° C | 37% | 964 hPa | 0 mm | - | 650 W/m² | - |
| 1777812005 | 23.89° C | 38% | 964.2 hPa | 0 mm | - | 702 W/m² | - |
| 1777811234 | 23.89° C | 38% | 964.1 hPa | 0 mm | - | 722 W/m² | - |
| 1777810935 | 23.89° C | 38% | 964.3 hPa | 0 mm | - | 722 W/m² | - |
| 1777810503 | 23.89° C | 38% | 964.3 hPa | 0 mm | - | 715 W/m² | - |
| 1777810204 | 23.33° C | 38% | 964.2 hPa | 0 mm | - | 589 W/m² | - |
| 1777809005 | 22.78° C | 39% | 964.3 hPa | 0 mm | - | 276 W/m² | - |
| 1777808234 | 23.33° C | 44% | 964.5 hPa | 0 mm | - | 606 W/m² | - |
| 1777806305 | 22.78° C | 42% | 964.5 hPa | 0 mm | - | 270 W/m² | - |
| 1777799103 | 18.89° C | 59% | 965.7 hPa | 0 mm | - | 655 W/m² | - |
| 1777798635 | 18.33° C | 60% | 965.7 hPa | 0 mm | - | 651 W/m² | - |
| 1777797435 | 18.89° C | 61% | 965.6 hPa | 0 mm | - | 610 W/m² | - |
* Rain latest hour (hover to see other rain measurements)
** Current wind speed in m/s (hover to see current wind gust speed)